Location: Newark
(40.3500°N, 15.2333°E)
Time: 21:45:56
(UTC+00:00)

Altair - Pass Details

Date: 20 January 2020
Orbit: 1502 x 1682 km, 47.2° (Epoch: 19 February)

Event Time Altitude Azimuth Distance (km) Brightness Sun altitude
Rises 14:04:16 0° 296° (WNW) 4,934 10.4 17.2°
Reaches altitude 10° 14:07:28 10° 297° (WNW) 3,936 9.9 16.8°
Maximum altitude 14:17:38 85° 27° (NNE) 1,651 7.9 15.4°
Drops below altitude 10° 14:27:26 10° 117° (ESE) 3,807 9.4 14.1°
Sets 14:30:28 0° 118° (ESE) 4,766 9.9 13.6°
